CAPE
436 77 276 364 260 723 483 354 275 449 367 49 190 409 763 1183 576 564 864 1091 1497 1484 1351 1394 1407 1258 1094 925 1137 1141 1292 1311 1398 1353 1237 1041 1103 1157 1066 1036 1233 1440 1771
154 107 225 141 335 198 375 641 481 337 8 0 19 642 979 1171 1158 1007 1162 1092 1294 1234 1250 1144 1205 1153 1270 853 1054 1099 1190 1532 1615 1718 1703 1596 1635 1990 1882 1887 1678 973 1320
162 67 67 91 137 152 153 389 549 152 405 737 666 1004 1126 967 1051 921 1044 1299 1251 1126 1278 746 1285 1447 1295 1309 1149 1368 1610 1468 1309 1257 1451 1295 1705 1909 2003 1929 1922 2018 2012
116 55 37 46 59 119 139 149 125 177 200 82 871 1046 1242 1223 1377 1264 1088 1296 1235 940 886 984 1150 1038 1159 1517 1430 1231 1266 1225 970 1034 916 836 1046 1882 1904 1928 2008 1852 1853
164 52 8 18 27 19 90 91 13 13 182 561 1081 683 963 991 668 854 1330 1313 1224 1103 969 1057 769 815 1114 1507 1627 1581 963 704 784 216 624 980 878 1918 2136 2191 1627 1336 1262
122 24 47 44 35 20 18 52 73 125 55 198 412 823 1286 1248 1256 1000 991 822 712 688 829 684 564 1046 1675 1069 1606 1481 833 321 297 128 106 81 412 1255 1486 1491 1758 1879 1898
114 28 66 97 21 46 76 78 140 152 139 287 1035 1038 1272 1373 1027 794 745 710 775 799 771 567 665 1293 1497 933 909 1053 544 202 202 129 187 406 259 957 904 822 716 652 545
285 151 80 215 80 53 95 41 117 194 334 372 1007 1225 1285 1103 1072 883 636 558 700 691 647 453 527 970 1138 1185 1000 966 736 493 279 394 521 534 542 1060 1057 948 897 959 995
663 644 453 306 291 105 109 155 221 159 322 791 951 1261 1417 1447 1363 1113 886 734 743 794 731 454 428 487 766 979 1106 1215 1269 395 393 766 765 768 501 1168 1281 1336 1265 1401 1487
706 936 1053 922 582 312 384 271 269 331 844 1226 1508 1397 1499 1296 1240 1481 989 1239 886 769 621 502 402 354 552 694 863 1477 1022 399 546 590 753 441 375 951 1398 1525 1576 1701 1844
807 992 846 902 1269 936 712 400 418 898 1161 1139 1017 846 816 447 573 326 374 1085 1033 988 1042 866 913 1100 1206 859 954 1172 1299 730 719 791 829 111 523 1295 2060 2309 2486 2550 2375
1042 1195 980 602 891 982 969 388 759 1086 916 895 922 1229 975 913 445 389 399 501 697 600 508 660 758 931 1160 964 1033 1107 717 920 663 858 779 279 718 1307 1792 2052 2204 2403 2509
935 1002 1265 1289 1256 816 951 845 688 467 369 665 1226 1010 1010 766 973 1080 1186 1332 1448 1233 1238 1204 1310 979 921 766 892 579 665 634 770 1055 877 585 823 1338 1825 2306 2594 2906 2996
714 801 1089 1254 1443 1061 578 366 351 287 306 444 820 882 883 673 1221 1405 1482 1567 1525 1550 1722 1595 1160 1398 982 1330 1234 1055 895 963 1252 1448 1224 818 1571 2157 2335 2516 2746 3177 3438
565 541 726 1124 1291 1196 596 483 492 286 241 534 698 587 654 994 1430 1508 2106 1658 1765 1690 1602 1627 1405 1327 1028 1075 1124 1182 997 1210 1325 1602 1655 2076 1800 2286 2483 2727 2845 3409 3506
125 129 381 844 1101 1191 1009 1167 1129 835 874 852 799 784 1202 1511 1725 1441 1651 1492 1671 1738 1883 1834 1885 1238 1264 1061 1071 1212 1503 1944 2226 2198 2235 2362 1572 1648 2389 2683 3176 3494 3166
2 7 110 529 816 1082 1253 1319 908 875 733 774 718 1200 1673 1811 1906 2065 1746 1741 1892 2412 2784 2496 1979 1583 1102 1101 1561 1937 2164 2479 2678 2732 2255 1443 1918 1934 2012 2340 3073 3490 2911
0 112 81 84 628 1141 1328 1425 956 1259 1020 468 591 826 1547 1767 2033 2080 1687 2084 3200 2660 2567 1916 1389 949 876 974 1588 1905 2134 2271 2540 2338 1533 985 1343 2157 1668 1293 1673 2432 2733
314 133 56 187 425 794 1263 1125 1148 1215 847 515 919 741 1476 1523 1722 2060 2036 2687 3163 2423 2419 2315 1781 1758 1558 1620 1469 1857 2218 2240 2121 1732 1151 973 653 1311 1577 1366 1307 1219 2110
547 601 202 402 542 1046 1278 1480 1205 1117 1057 658 815 601 1423 1083 1516 1959 2049 2555 2601 2255 2142 2391 2733 2332 2216 2071 1348 1680 1820 1964 2043 1909 1642 1234 840 59 1007 1039 1761 1903 1518
540 568 417 704 1177 1274 1070 633 781 731 1076 819 802 388 1146 1006 1937 2219 1459 1739 2278 2118 2522 3075 2377 2342 1842 2039 2108 1504 1851 1547 1596 1316 813 470 365 404 1119 765 1419 2014 2011
539 545 625 865 1239 1071 925 810 792 669 891 763 876 1384 915 790 1988 1908 1645 1375 2430 2204 2852 3065 3007 1920 1879 1950 1393 1804 753 2119 1273 778 651 403 1048 544 382 970 1743 2194 2273
474 532 537 826 1174 1224 1048 1244 1200 935 1101 612 812 1082 805 691 1175 2234 1766 2182 2346 2208 1829 2186 2404 2421 1662 1346 1484 1123 529 335 735 451 651 564 635 399 963 1635 1861 2034 2310
490 442 544 863 1013 1296 1387 824 834 526 279 256 606 890 1072 1280 1319 1541 1772 1866 2205 1907 1827 1920 1048 1926 1668 1119 942 761 825 855 697 694 409 565 565 1162 1998 1813 1842 2011 2169
461 441 524 840 917 722 980 1118 448 418 353 561 630 1325 1012 1474 1665 1113 1724 1933 1941 1386 1635 2032 2010 2273 1782 1548 1275 669 1383 1201 1559 1079 616 702 899 1136 1479 1607 1689 1664 2064
440 506 496 747 894 856 961 733 656 579 583 454 670 744 690 766 822 1294 1306 1312 1576 1756 1654 1707 2182 2453 2522 2595 2244 2186 1824 1659 1428 1460 1322 1164 1238 1104 1522 1392 1558 1822 1838
CIN
-1 -24 -6 -5 -8 0 -3 -6 -6 -6 -13 -51 -25 -9 -3 0 -5 -4 -1 0 0 0 0 0 0 0 -1 -2 -1 -1 0 0 0 -1 -3 -10 -4 -4 -15 -18 -7 -1 0
-1 -5 -7 -14 -5 -8 -1 0 -3 -8 -88 0 -52 -4 0 0 0 0 0 0 0 0 0 0 0 -2 0 -7 -3 -2 -3 0 0 0 -10 -14 0 0 0 -5 -4 -27 -13
-1 -2 -3 -11 -6 -7 -11 -4 -2 -20 -11 -1 -3 0 0 0 0 0 0 0 0 0 -1 -4 0 0 0 0 0 0 0 0 -8 -19 -8 -1 0 0 0 0 0 0 0
-4 -13 -16 -13 -4 0 -5 -6 -18 -10 -24 -62 0 0 0 0 0 0 0 0 0 -2 -2 -2 0 0 -1 0 0 0 0 -5 -28 -27 -3 -1 -1 0 0 0 0 0 -1
-4 -23 -25 -11 -5 -7 -9 -5 -26 -35 -13 -11 0 -4 0 0 0 0 0 0 0 0 0 -3 -15 -11 -6 0 0 0 -23 -58 -55 -96 -41 -4 -2 -2 0 0 -6 -20 -34
-8 -1 -21 -18 -17 -14 -18 -20 -11 -26 -47 -17 -5 -1 0 0 0 0 0 0 -2 -7 -5 -25 -30 -20 -6 -14 0 -2 -48 -136 -111 -143 -178 -234 -97 -43 -21 -21 -11 -8 -10
-5 -18 -23 -28 -47 -38 -25 -25 -18 -16 -12 -3 -3 0 0 0 0 0 0 -3 -8 -13 -23 -39 -36 -19 -14 -28 -48 -31 -96 -207 -132 -183 -153 -94 -195 -86 -100 -123 -152 -175 -203
-2 -2 -17 -19 -36 -56 -40 -45 -23 -23 -13 -11 0 0 0 0 0 0 -5 -17 -22 -34 -39 -59 -53 -30 -27 -25 -52 -51 -94 -149 -137 -126 -101 -118 -198 -122 -117 -139 -148 -141 -127
-1 -1 -3 -4 -5 -26 -35 -19 -17 -36 -11 0 -1 0 -1 -1 0 0 -2 -20 -33 -42 -49 -75 -70 -71 -55 -53 -58 -43 -57 -183 -105 -78 -55 -60 -225 -131 -117 -115 -128 -97 -78
-2 -1 -1 0 -8 -20 -5 -3 -6 -3 0 0 0 -1 -1 -1 -4 -4 -12 -19 -41 -57 -68 -75 -85 -109 -113 -104 -117 -49 -98 -162 -78 -99 -64 -157 -265 -187 -122 -104 -102 -74 -53
-1 -1 -1 -1 0 -11 -5 -1 -5 -2 -4 -8 -9 -10 -5 -1 -1 -5 -60 -42 -54 -62 -56 -60 -63 -70 -69 -112 -114 -94 -84 -54 -48 -55 -45 -307 -259 -143 -73 -34 -20 -14 -27
-1 -1 -1 -1 -1 -3 -11 -13 -8 0 -1 -1 -2 -1 -1 -3 -14 -12 -58 -84 -70 -79 -82 -76 -84 -76 -82 -7 -39 -63 -31 -42 -46 -54 -84 -267 -224 -152 -95 -60 -38 -30 -25
-2 -1 -1 -1 -1 0 -1 -1 -1 -1 -2 -15 -12 -1 -10 -2 -2 0 -2 -3 -2 -30 -1 -8 -9 -8 -33 -19 -24 -33 -41 -39 -32 -35 -127 -233 -221 -156 -109 -49 -31 -17 -12
-10 -4 0 0 0 0 -1 -1 -7 -4 -8 -2 -9 -14 -16 -2 -4 -1 -1 -1 -1 -1 -1 -1 -2 -16 -25 -20 -1 -1 -21 -33 -11 -26 -95 -208 -163 -100 -86 -55 -30 -7 -3
-23 -32 -19 -2 0 0 -1 -1 -1 -9 -1 -6 -8 -39 -28 -1 -1 0 -1 0 0 0 -1 -2 -7 -13 -18 -17 -12 -19 -10 -30 -49 -44 -49 -104 -152 -108 -94 -56 -35 -5 0
-55 -75 -54 -7 -2 0 -1 0 -1 0 -5 -1 -5 -26 -27 -1 -1 -1 -1 -2 0 -1 -2 -2 -8 -5 -19 -20 -26 -26 -23 -15 -52 -52 -34 -71 -159 -175 -116 -71 -28 -2 0
-7 -79 -79 -19 -8 -1 0 0 -1 0 -1 -1 -9 -27 -13 -5 -12 -5 -1 -1 -1 -1 -3 -6 -13 -21 -21 -15 -19 -17 -9 -33 -36 -58 -63 -106 -76 -127 -144 -108 -34 0 -2
0 -79 -83 -44 -3 -4 0 -1 0 0 -1 -14 -12 -3 -13 -19 -21 -2 -1 -1 -3 0 -1 -2 -7 -24 -21 -17 -10 -18 -29 -31 -50 -78 -111 -119 -124 -38 -104 -153 -125 -53 -9
-22 -66 -71 -22 -2 -1 -4 -2 -2 -4 -1 -12 -1 -15 -20 -13 -22 -3 -1 -5 -2 0 -1 -1 -6 -9 -9 -7 -6 -21 -40 -37 -63 -78 -130 -112 -167 -79 -63 -105 -126 -144 -57
-6 -9 -28 -4 -2 -1 -1 -1 -1 0 -1 -6 -9 -20 -17 -16 -17 -16 -3 -9 -3 0 -2 -6 -13 -13 -11 -22 -11 -21 -37 -44 -62 -65 -71 -85 -86 -102 -67 -85 -49 -23 -87
-4 -4 -15 -1 -1 -1 -1 -1 -1 -1 -1 -4 -3 -40 -20 -24 -9 -12 0 -5 -3 -2 -9 -11 -13 -20 -15 -31 -11 -3 -27 -51 -63 -84 -122 -106 -133 -129 -46 -77 -57 -27 -7
-3 -3 -2 -1 -1 -2 -1 -1 -1 -3 -4 -1 -1 -3 -17 -27 -6 -2 -16 -13 -15 -1 -8 -4 -15 -4 -16 -40 -33 -2 -4 -15 -31 -75 -128 -123 -81 -66 -51 -48 -43 -33 -2
-4 -8 -5 -1 -1 -1 -2 -1 -5 -7 -3 -2 -2 -1 -11 -23 -11 -2 -17 -9 -5 -4 0 -8 -14 -25 -2 -43 -77 -41 -18 -17 -19 -71 -101 -88 -97 -66 -23 -28 -27 -23 -15
-2 -7 -1 -1 -3 -1 -2 -1 -1 -3 -2 -3 -2 -1 -1 -2 -4 -1 -2 -8 -11 -2 -8 -7 -33 -24 -38 -21 -51 -66 -84 -78 -26 -3 -43 -58 -65 -7 -16 -5 -5 -11 -1
-2 -3 -7 -1 -1 -1 -3 -3 -6 -8 -4 -1 -2 0 -1 -3 -1 -3 0 0 0 -1 -11 -6 -15 -21 -12 -16 -24 -58 -42 -28 -38 -9 -2 -3 -3 -1 -1 0 -2 -1 0
-3 -1 -2 -9 -6 -4 -6 -4 -7 -2 -2 -1 -2 -2 -2 -2 -1 -6 -2 -6 -2 -3 -1 -2 -5 -4 -7 -2 -3 -7 -3 -2 0 -1 -1 -2 -3 -2 -1 -2 0 -1 0
Wind_Speed
7 5 6 7 8 7 6 4 3 5 6 5 4 5 6 6 8 10 10 16 16 20 20 21 21 20 21 22 24 24 25 25 23 23 23 21 21 20 19 18 13 19 18
18 9 6 7 8 7 6 4 3 5 5 6 5 4 4 5 7 9 13 16 18 19 21 21 20 22 18 21 23 23 23 23 23 25 25 25 22 20 20 15 13 18 18
23 18 7 7 7 7 6 3 1 3 4 3 3 8 1 6 7 15 12 15 17 16 16 20 16 17 18 22 24 22 22 20 24 24 22 20 20 20 19 18 19 20 20
22 22 7 6 7 8 5 3 1 1 2 5 2 2 1 5 6 6 10 10 11 13 15 17 16 12 14 24 26 25 25 26 24 17 19 21 21 14 19 21 21 21 21
18 22 24 21 13 9 2 3 4 1 1 5 7 2 1 4 2 5 6 8 6 9 11 10 8 9 12 27 27 27 26 24 22 22 24 11 19 20 23 21 21 21 6
25 23 26 22 13 5 5 5 9 8 2 3 5 5 0 2 1 2 1 6 8 9 3 5 7 5 22 28 27 23 21 21 19 22 24 23 15 22 21 19 18 17 18
24 26 24 25 19 3 3 6 5 4 5 3 6 8 8 6 5 4 1 4 4 5 7 3 6 3 21 25 24 22 20 18 21 21 21 21 24 20 19 18 17 16 15
25 24 23 24 24 10 2 2 2 4 7 4 13 11 11 9 7 4 2 4 10 11 9 4 10 18 15 19 20 19 17 16 21 22 18 22 20 19 17 16 14 13 13
26 19 22 21 22 19 20 11 8 2 1 11 12 11 9 8 5 5 7 11 11 15 16 17 19 16 15 15 15 16 18 16 20 19 21 24 21 19 17 15 14 12 12
27 28 24 22 23 22 29 17 3 9 13 11 9 9 9 8 12 16 21 11 15 16 18 20 17 16 15 15 14 15 20 18 18 23 23 25 20 19 17 14 12 11 16
23 28 28 29 30 29 29 6 3 8 10 12 14 14 16 11 11 5 10 14 14 16 19 19 17 16 16 18 18 18 19 21 21 21 24 23 19 18 15 13 11 9 9
26 27 28 29 29 29 30 15 9 12 15 15 15 14 12 10 8 7 9 12 13 16 18 18 17 17 16 16 22 21 22 23 22 24 24 21 18 16 13 10 8 6 5
25 25 26 26 25 25 25 26 23 20 19 17 15 13 10 10 9 9 8 9 11 17 17 18 16 12 12 15 19 18 24 23 24 23 24 19 16 11 10 10 8 6 5
27 26 24 24 21 22 24 23 21 21 19 17 14 13 11 9 9 9 8 9 12 12 13 12 8 11 15 18 17 22 24 22 22 18 24 10 6 6 7 10 10 6 8
28 26 25 23 18 19 21 20 18 20 17 16 14 11 10 9 9 9 10 10 12 13 12 12 11 13 15 17 17 16 17 22 19 22 20 23 17 3 6 7 8 12 20
28 27 26 24 21 21 20 21 20 18 17 16 13 10 9 10 10 11 12 12 13 13 13 13 13 15 15 14 16 13 13 18 19 19 19 17 22 20 9 5 8 20 21
28 27 27 25 23 22 22 22 19 20 17 16 15 12 11 10 10 12 12 12 13 12 14 15 17 17 15 12 13 16 18 20 19 20 19 19 21 20 17 14 3 14 18
28 27 27 25 24 23 19 21 19 16 17 15 17 15 13 11 11 12 13 13 13 13 11 13 15 15 14 13 13 15 18 16 17 17 19 20 19 9 5 11 8 6 13
12 27 28 25 25 23 21 23 18 16 14 14 16 16 13 12 12 12 12 12 13 11 10 11 13 14 13 14 13 15 15 15 17 16 16 17 9 10 8 10 8 18 14
28 28 27 25 24 23 22 21 19 17 15 15 15 15 15 15 14 13 11 12 13 12 10 10 12 13 14 13 14 17 14 16 16 16 11 7 9 11 10 7 8 16 21
29 29 28 27 25 25 25 24 22 18 16 16 16 17 16 16 15 13 12 12 13 12 12 13 13 13 15 16 10 18 14 15 15 13 8 7 6 12 11 8 12 12 20
29 30 30 28 26 27 25 24 21 20 20 18 16 18 17 17 16 14 14 13 13 13 13 15 15 16 17 18 18 13 9 15 15 10 8 9 7 10 9 12 12 18 18
27 25 30 29 27 28 27 23 20 19 19 21 20 19 15 18 18 16 14 14 14 15 14 16 16 17 17 17 20 10 9 9 9 10 10 9 9 12 15 15 12 17 21
30 22 19 31 29 27 29 28 26 26 24 21 16 14 15 18 19 19 17 16 16 16 15 16 17 17 17 15 10 10 10 9 9 9 17 20 17 19 17 16 18 18 18
32 30 22 24 30 29 29 28 27 27 24 25 21 16 19 16 19 20 20 18 17 18 17 17 16 16 17 15 15 15 11 11 12 10 7 19 20 18 17 17 18 18 21
26 31 31 23 29 29 30 29 28 27 25 25 25 22 22 18 19 19 20 20 20 19 19 19 19 18 19 18 17 17 17 13 12 11 8 15 10 13 12 15 15 15 16
Wind_Direction
328 323 302 312 330 333 327 340 324 21 27 20 9 6 21 21 33 44 48 52 49 57 57 59 54 50 51 57 61 63 68 68 61 59 61 51 50 48 43 39 112 42 41
69 26 290 319 327 320 350 324 8 33 26 34 20 11 14 21 36 41 49 53 53 56 59 58 52 52 37 49 52 56 52 55 58 74 76 67 54 43 45 13 2 40 40
78 58 332 303 327 343 351 334 12 46 30 11 348 30 285 34 36 53 50 51 51 48 47 50 38 38 37 45 55 50 48 39 63 116 122 45 39 41 38 31 38 53 53
70 66 2 330 339 354 354 355 128 108 11 18 358 204 38 35 32 35 44 43 42 39 40 40 34 19 17 66 73 64 65 88 108 140 96 45 46 9 30 45 53 62 76
51 63 76 55 27 15 279 25 189 202 266 25 200 199 28 29 17 28 37 37 27 30 28 20 8 1 11 79 88 80 103 107 121 111 98 174 30 32 61 98 80 75 203
76 66 73 55 26 10 197 191 197 209 232 28 206 196 138 204 265 207 24 28 26 24 323 356 356 338 123 81 108 119 124 128 130 115 104 108 137 91 99 114 119 118 110
73 79 71 60 44 142 168 193 197 214 216 234 204 199 197 198 198 204 315 2 358 212 200 314 355 330 48 118 118 124 129 136 124 124 123 120 101 115 114 115 119 122 123
78 78 77 76 64 49 89 155 54 195 195 204 191 188 186 188 194 205 247 215 192 189 195 217 173 144 150 140 133 135 138 143 124 118 131 114 119 121 124 128 133 136 129
84 58 74 70 78 62 68 49 44 42 353 188 183 185 185 188 198 207 203 190 192 179 169 160 147 158 156 151 148 143 136 142 125 127 118 96 110 115 119 121 121 132 124
103 96 77 73 76 73 106 68 193 201 185 182 183 183 183 186 181 174 156 194 182 178 164 152 161 163 161 154 151 146 133 133 133 107 107 87 110 108 110 113 117 114 68
155 117 103 101 109 116 97 48 50 184 180 178 176 178 176 191 190 214 196 188 189 177 164 160 164 162 160 147 139 137 133 122 119 116 97 97 105 100 105 106 109 116 109
151 131 118 118 114 131 102 176 197 187 176 177 180 184 186 195 205 205 201 193 189 180 168 165 167 165 161 159 129 127 121 116 113 101 93 97 102 103 106 108 114 132 127
162 151 141 142 150 155 151 144 158 171 173 177 184 189 201 203 212 212 226 216 209 174 170 163 169 188 180 162 145 142 112 112 98 92 75 93 97 112 109 102 107 110 116
158 156 155 150 169 164 157 163 169 170 177 184 195 195 204 218 222 224 229 220 199 192 184 188 212 185 169 156 150 121 98 100 80 90 66 123 146 136 123 104 93 96 90
154 150 151 159 187 176 171 172 181 178 189 193 199 215 221 230 229 227 223 214 200 196 197 194 197 184 170 158 147 145 129 71 92 66 69 32 322 229 131 119 100 80 65
163 155 152 166 186 178 173 172 174 185 188 195 207 229 238 233 228 225 216 211 202 203 202 203 200 188 182 174 151 166 150 87 76 66 67 72 43 345 277 261 102 65 62
168 159 168 177 182 179 172 171 181 178 190 200 208 222 234 239 236 223 217 216 206 214 207 203 194 189 193 202 164 126 79 68 68 62 65 64 57 24 322 310 252 81 69
167 158 180 186 190 188 193 183 187 200 195 209 201 216 229 244 237 223 214 211 211 211 223 214 206 211 210 204 178 111 71 73 66 60 57 57 62 246 360 303 114 97 77
173 154 182 195 191 196 200 183 201 205 220 221 210 208 223 230 231 227 222 219 215 233 238 233 226 227 231 212 164 78 76 74 63 66 70 61 253 248 190 130 118 73 82
167 180 189 201 202 200 205 208 208 204 216 218 216 214 212 217 224 227 242 235 225 241 256 265 251 249 253 245 248 43 75 69 62 65 91 126 232 188 181 178 116 80 67
186 175 185 199 205 201 194 199 206 211 215 212 220 215 214 216 223 235 251 247 240 262 263 262 264 271 281 284 172 36 72 71 69 88 120 163 190 157 169 161 110 95 71
188 182 181 189 205 203 202 203 214 212 207 215 222 215 219 220 230 235 237 253 254 268 271 267 268 271 298 314 299 75 133 86 88 132 149 163 186 155 172 130 111 79 81
158 157 177 182 202 198 204 215 222 224 220 207 210 220 244 228 233 242 250 254 257 257 276 271 277 275 274 350 4 112 198 217 232 159 143 155 153 134 111 107 112 91 72
174 142 147 188 198 205 195 195 198 187 192 211 238 252 250 239 235 239 251 255 254 262 266 276 288 275 262 244 158 169 193 183 217 184 94 74 93 93 97 91 87 91 89
183 177 143 154 186 202 205 210 207 202 219 203 225 256 238 260 245 238 241 252 259 255 276 277 283 276 274 253 257 260 202 175 125 197 111 69 76 86 90 90 87 90 71
162 186 194 151 175 185 198 208 216 211 224 216 220 237 231 260 240 245 245 247 254 265 272 272 283 289 273 276 275 297 287 236 232 181 157 85 133 103 116 89 92 97 99